Irving, TX

4:38 AM CDT on August 26, 2016 (GMT -0500)
Dallas-Fort Worth International

Weather History for KDFW - July, 2013

Change the Weather History Date:

Tuesday, July 16, 2013

  Actual Average Record
Temperature  
Mean Temperature 80 °F 85 °F  
Max Temperature 89 °F 96 °F 108 °F (1980)
Min Temperature 71 °F 75 °F 65 °F (1967)
Degree Days  
Heating Degree Days 0 0  
Month to date heating degree days 0 0  
Since 1 June heating degree days 0 0  
Since 1 July heating degree days 0 0  
Cooling Degree Days 15 20  
Month to date cooling degree days 298 315  
Year to date cooling degree days 1225 1228  
Since 1 June cooling degree days 836 806  
Growing Degree Days 30 (Base 50)    
Moisture  
Dew Point 70 °F    
Average Humidity 71    
Maximum Humidity 94    
Minimum Humidity 47    
Precipitation  
Precipitation 0.74 in 0.07 in 0.87 in (1976)
Month to date precipitation 1.63 1.33  
Year to date precipitation 16.93 21.37  
Sea Level Pressure  
Sea Level Pressure 30.11 in    
Wind  
Wind Speed 8 mph (East)    
Max Wind Speed 36 mph    
Max Gust Speed 43 mph    
Visibility 9 miles    
Events Fog , Rain , Thunderstorm    
T = Trace of Precipitation, MM = Missing Value Source: NWS Daily Summary

Daily Weather History Graph

Daily Weather History Graph

Search for Another Location

Airport or City:

Trip Planner

Search our weather history database for the weather conditions in past years. The results will help you decide how hot, cold, wet, or windy it might be!

Date:

Astronomy

Jul. 16, 2013 Rise Set
Actual Time 6:31 AM CDT 8:36 PM CDT
Civil Twilight 6:03 AM CDT 9:04 PM CDT
Nautical Twilight 5:29 AM CDT 9:38 PM CDT
Astronomical Twilight 4:52 AM CDT 10:14 PM CDT
Moon 2:26 PM CDT (7/16) 12:52 AM CDT (7/16)
Length of Visible Light 15h 01m
Length of Day
14h 05m
First Quarter, 56% of the Moon is Illuminated
Jul 16
First Quarter
Jul 22
Full
Jul 29
Last Quarter
Aug 6
New
Aug 14
First Quarter

Hourly Weather History & Observations

Time (CDT) Temp. Heat Index Dew Point Humidity Pressure Visibility Wind Dir Wind Speed Gust Speed Precip Events Conditions
12:53 AM 73.0 °F - 70.0 °F 90% 30.08 in 10.0 mi East 8.1 mph - N/A   Overcast
1:53 AM 72.0 °F - 69.1 °F 91% 30.07 in 10.0 mi East 4.6 mph - 0.00 in   Overcast
2:53 AM 72.0 °F - 69.1 °F 91% 30.07 in 10.0 mi ENE 3.5 mph - N/A   Overcast
3:43 AM 72.0 °F - 68.0 °F 87% 30.09 in 10.0 mi East 6.9 mph - N/A   Overcast
3:53 AM 72.0 °F - 68.0 °F 87% 30.07 in 10.0 mi East 4.6 mph - N/A   Overcast
4:07 AM 72.0 °F - 68.0 °F 87% 30.08 in 10.0 mi East 4.6 mph - N/A   Overcast
4:53 AM 72.0 °F - 69.1 °F 91% 30.06 in 10.0 mi East 5.8 mph - N/A   Overcast
5:15 AM 72.0 °F - 69.1 °F 91% 30.09 in 10.0 mi East 5.8 mph - 0.00 in Rain Light Rain
5:32 AM 73.0 °F - 69.1 °F 87% 30.09 in 9.0 mi ESE 5.8 mph - 0.01 in Rain Light Rain
5:53 AM 72.0 °F - 70.0 °F 93% 30.07 in 10.0 mi East 6.9 mph - 0.01 in   Overcast
6:24 AM 72.0 °F - 69.1 °F 91% 30.11 in 10.0 mi ESE 4.6 mph - 0.00 in Rain Light Rain
6:53 AM 72.0 °F - 70.0 °F 93% 30.10 in 10.0 mi SE 3.5 mph - 0.00 in Rain Light Rain
7:06 AM 73.0 °F - 70.0 °F 90% 30.13 in 10.0 mi Calm Calm - 0.00 in Rain Light Rain
7:28 AM 73.0 °F - 70.0 °F 90% 30.13 in 10.0 mi East 5.8 mph - 0.00 in   Overcast
7:53 AM 73.0 °F - 70.0 °F 90% 30.11 in 10.0 mi East 5.8 mph - 0.00 in   Overcast
8:03 AM 73.0 °F - 70.0 °F 90% 30.13 in 10.0 mi East 6.9 mph - N/A   Overcast
8:53 AM 73.9 °F - 70.0 °F 87% 30.13 in 10.0 mi ESE 5.8 mph - N/A   Overcast
9:20 AM 75.9 °F - 71.1 °F 85% 30.15 in 10.0 mi East 6.9 mph - N/A   Mostly Cloudy
9:53 AM 77.0 °F - 71.1 °F 82% 30.13 in 10.0 mi ESE 8.1 mph - N/A   Mostly Cloudy
10:53 AM 79.0 °F - 71.1 °F 77% 30.14 in 10.0 mi ESE 11.5 mph - N/A   Overcast
11:53 AM 80.1 °F 83.6 °F 71.1 °F 74% 30.14 in 10.0 mi East 10.4 mph - N/A   Mostly Cloudy
12:53 PM 82.9 °F 87.0 °F 70.0 °F 65% 30.14 in 10.0 mi East 11.5 mph - N/A   Mostly Cloudy
1:53 PM 84.0 °F 87.8 °F 69.1 °F 61% 30.12 in 10.0 mi ESE 13.8 mph 19.6 mph N/A   Mostly Cloudy
2:53 PM 84.9 °F 88.8 °F 69.1 °F 59% 30.10 in 10.0 mi East 6.9 mph 17.3 mph N/A   Mostly Cloudy
3:53 PM 87.1 °F 89.9 °F 66.9 °F 51% 30.08 in 10.0 mi SE 6.9 mph - N/A   Mostly Cloudy
4:53 PM 87.1 °F 89.9 °F 66.9 °F 51% 30.07 in 10.0 mi ESE 9.2 mph - N/A   Mostly Cloudy
5:53 PM 89.1 °F 92.1 °F 66.9 °F 48% 30.07 in 10.0 mi ESE 11.5 mph - N/A   Mostly Cloudy
5:58 PM 84.9 °F 88.8 °F 69.1 °F 59% 30.09 in 8.0 mi ESE 29.9 mph 38.0 mph N/A Thunderstorm Thunderstorm
6:02 PM 75.9 °F - 70.0 °F 82% 30.12 in 1.8 mi ESE 28.8 mph 42.6 mph 0.00 in Rain , Thunderstorm Light Thunderstorms and Rain
6:05 PM 75.0 °F - 69.1 °F 82% 30.12 in 0.8 mi SSE 17.3 mph 42.6 mph 0.09 in Rain , Thunderstorm Heavy Thunderstorms and Rain
6:10 PM 73.9 °F - 70.0 °F 87% 30.11 in 0.5 mi SE 9.2 mph 38.0 mph 0.35 in Fog , Rain , Thunderstorm Heavy Thunderstorms and Rain
6:14 PM 75.0 °F - 70.0 °F 84% 30.12 in 5.0 mi SE 9.2 mph - 0.37 in Thunderstorm Overcast
6:53 PM 77.0 °F - 72.0 °F 84% 30.11 in 9.0 mi ESE 12.7 mph 23.0 mph 0.45 in Rain , Thunderstorm Light Thunderstorms and Rain
7:07 PM 77.0 °F - 72.0 °F 84% 30.13 in 9.0 mi SE 4.6 mph - 0.01 in Rain Light Rain
7:53 PM 75.9 °F - 73.0 °F 91% 30.11 in 9.0 mi East 3.5 mph - 0.03 in Rain Light Rain
8:53 PM 75.9 °F - 73.0 °F 91% 30.11 in 10.0 mi NE 4.6 mph - 0.01 in Rain Light Rain
9:53 PM 75.9 °F - 73.0 °F 91% 30.13 in 10.0 mi NNE 4.6 mph - 0.00 in   Mostly Cloudy
10:53 PM 77.0 °F - 73.0 °F 88% 30.14 in 10.0 mi NNW 6.9 mph - N/A   Overcast
11:39 PM 75.9 °F - 73.0 °F 91% 30.19 in 9.0 mi ESE 19.6 mph 29.9 mph N/A Thunderstorm Thunderstorm
11:48 PM 71.6 °F - 69.8 °F 94% 30.21 in 3.0 mi East 23.0 mph 33.4 mph 0.09 in Rain , Thunderstorm Thunderstorms and Rain
11:53 PM 71.1 °F - 68.0 °F 90% 30.19 in 5.0 mi East 12.7 mph 32.2 mph 0.11 in Rain , Thunderstorm Thunderstorms and Rain